COSMOS 1375 DEB

Satellite information

Favourite Embed

Satellite Type and Status

DEBRISIN ORBIT

Key statistics

Satellite COSMOS 1375 DEB at a glance.

Uptime

15738

Days in orbit

Revolutions

≈ 14.0

Per day

Orbit

LEO

Low Earth Orbit

Inclination

65.8

Latest

Satellite identification and parameters

Extended collection of information and parameters for COSMOS 1375 DEB.

Object identification

Identified? True

Debris? True

Object name: COSMOS 1375 DEB

International designator: 1982-055AR

Object number (NORAD): 17799

Object ID (CCSDS): 17799

Country: COMMONWEALTH OF INDEPENDENT STATES (CIS)

Current information (Y/N): Y

RCS size: SMALL

Orbital parameters

Period: 103.173 minutes

Inclination: 65.8369 deg

SMA: 7286.803 km

Apoapsis: 932.197 km

Periapsis: 885.139 km

RAAN: 118.9711 deg

Eccentricy: 0.003229

Argument of periapsis: 232.102 deg

Mean anomaly: 189.2555 deg

Mean motion: 13.95716586 rev/day

Mean motion (dot): 0.00000421 rev/day2

B* drag term: 0.00036918 1/REarth

Two-line elements (TLE)

Creation date: July 8, 2025, 2:27 a.m.

Reference frame: TEME

Reference center: EARTH

Epoch: July 7, 2025, 9:53 p.m. UTC

TLE line 0: 0 COSMOS 1375 DEB

TLE line 1: 1 17799U 82055AR 25188.91210644 .00000421 00000-0 36918-3 0 9991

TLE line 2: 2 17799 65.8369 118.9711 0032290 232.1020 189.2555 13.95716586 11778

Live tracking on map

Real-time ground track for satellite COSMOS 1375 DEB.

In-orbit conjunctions

A list of the most updated potential collisions computed for object COSMOS 1375 DEB.

Target Orbit TCA Probability of collision Miss distance Type
METEOR 1-18 LEO 2024-11-12 18:08:59 0.001843701 865.0 (m) PAYLOAD

Associated space launch

ASAT target satellite

COSMOS 1375 DEB was lifted into orbit during the mission ‘Kosmos-3M | DS-P1-M 16’, on board a Kosmos-3M space rocket.

The launch took place on June 6, 1982, 5:10 p.m. from 132/2.

For more information about the launch, click the button.

Launch to space Kosmos-3M | DS-P1-M 16
Kosmos-3M | DS-P1-M 16

Agency: N/A

Status: Launch Successful

Launch date: June 6, 1982, 5:10 p.m. UTC

Rocket: Kosmos-3M

Launch pad: 132/2

Location: Plesetsk Cosmodrome, Russian Federation

...

Latest news about this satellite

There are no fresh news available about this satellite. Check back as we update our databases every day.


Newsletter sign-up

Weekly statistics, charts and insights to help you stay on top of the space industry.